Location: Newark
(35.2672°N, 80.7344°W)
Time: 13:40:59
(UTC+00:00)

Vanguard 2 Rocket - Pass Details

Date: 22 January 2020
Orbit: 553 x 3327 km, 32.9° (Epoch: 24 February)

Event Time Altitude Azimuth Distance (km) Brightness Sun altitude
Rises 14:37:07 0° 276° (W) 3,761 9.6 20.8°
Reaches altitude 10° 14:39:17 10° 273° (W) 3,053 9.2 21.1°
Maximum altitude 14:46:59 66° 192° (SSW) 1,800 9.0 22.2°
Drops below altitude 10° 15:00:58 10° 115° (ESE) 5,293 12.1 24.1°
Sets 15:06:01 0° 113° (ESE) 6,675 12.3 24.7°
